Flag for U.S.A. Weather past 2 weeks in Gainesville, Florida, U.S.A.

Now
62 °F

Overcast.


Feels Like: 62 °F
Forecast: 56 / 69 °F
Wind: 9 mph from North

Location: Gainesville Regional Airport


UV Index: 5 (Moderate)

Visibility: 10 mi


Pressure: 30.08 "Hg

Humidity: 75%

Dew point: 54 °F

Location of GainesvilleLocation

Historic Weather in Gainesville

°F

Gainesville temperature yesterday

Maximum temperature yesterday: 71 °F (at 12:00 PM)
Minimum temperature yesterday: 60 °F (at 11:53 PM)
Average temperature yesterday: 65 °F

Past Weeks' High & Low Weather Summary

 TemperatureHumidityPressure
High86 °F (Apr 7, 1:53 PM)100% (Apr 18, 9:53 PM)30.31 "Hg (Apr 18, 9:53 PM)
Low42 °F (Apr 16, 6:53 AM)32% (Apr 10, 3:53 PM)29.69 "Hg (Apr 8, 4:53 AM)
Average67 °F76%30.03 "Hg
* Reported Apr 5 4:53 PM — Apr 20 4:53 PM, Gainesville, Weather by CustomWeather, © 2014

Note: Actual official high and low records may vary slightly from our data, if they occured in-between our weather recording intervals... More about our weather records

Advertising

Historic Weather Conditions — Data for Previous 24 hours

 ConditionsComfort  
Time TempWeatherWind HumidityBarometerVisibility
4:53 PM
Apr 20
64 °FOvercast.13 mph73%30.07 "Hg10 mi
3:53 PM64 °FOvercast.7 mph75%30.07 "Hg10 mi
2:53 PM64 °FOvercast.9 mph73%30.08 "Hg10 mi
1:53 PM63 °FOvercast.8 mph75%30.10 "Hg10 mi
12:53 PM61 °FOvercast.9 mph78%30.11 "Hg10 mi
11:53 AM60 °FOvercast.9 mph78%30.11 "Hg10 mi
10:53 AM59 °FOvercast.10 mph81%30.11 "Hg10 mi
9:53 AM60 °FOvercast.8 mph80%30.09 "Hg10 mi
8:53 AM57 °FPartly sunny.9 mph87%30.09 "Hg10 mi
7:53 AM56 °FFog.7 mph97%30.06 "Hg6 mi
6:53 AM56 °FLow clouds.8 mph97%30.04 "Hg10 mi
5:53 AM57 °FMostly cloudy.9 mph96%30.03 "Hg10 mi
5:00 AM58 °FFog.7 mph97%30.02 "Hg5 mi
3:53 AM58 °FFog.7 mph97%30.00 "Hg5 mi
2:53 AM59 °FOvercast.9 mph93%29.99 "Hg10 mi
1:53 AM59 °FFog.8 mph96%30.00 "Hg5 mi
12:53 AM59 °FLow clouds.5 mph96%30.00 "Hg9 mi
11:53 PM
Apr 19
60 °FLow clouds.7 mph93%30.02 "Hg10 mi
10:53 PM61 °FLow clouds.10 mph90%30.01 "Hg10 mi
9:53 PM61 °FLow clouds.8 mph90%29.98 "Hg10 mi
8:53 PM61 °FLow clouds.8 mph90%29.96 "Hg10 mi
7:53 PM62 °FLow clouds.6 mph93%29.94 "Hg10 mi
6:53 PM62 °FFog.5 mph96%29.93 "Hg3 mi
Weather by CustomWeather, © 2014

See weather overview